Terminal Aerodrome Forecast
Issued by NWS

Home | Current Version | Previous Version | Text Only | Print | Product List | Glossary On
Versions: 1 2 3 4 5 6 7 8 9 10 11 12 13 14 15 16 17 18 19
000
FTUS45 KPSR 190500
TAFBLH
TAF
KBLH 190520Z 1906/2006 21009KT P6SM SKC
     FM190800 19005KT P6SM SKC
     FM191900 18008KT P6SM SKC
     FM200200 21008KT P6SM SKC=

USA.gov is the U.S. government's official web portal to all federal, state and local government web resources and services.